002  
ASUS42 KCAE 260810  
RWRCAE  
REGIONAL WEATHER ROUNDUP  
NATIONAL WEATHER SERVICE COLUMBIA SC  
400 AM EDT SUN MAR 26 2017  
 
NOTE: "FAIR" INDICATES FEW OR NO CLOUDS BELOW 12,000 FEET WITH NO  
SIGNIFICANT WEATHER AND/OR S TO VISIBILITY
.  
 
NOT ALL STATIONS ARE QUALITY CONTROLLED BY THE NATIONAL  
WEATHER SERVICE. USE DATA WITH CAUTION...ESPECIALLY  
DEWPOINT OBSERVATIONS.  
 
SCZ001>056-GAZ040-063>065-077-260900-   
..UPSTATE SOUTH CAROLINA
 
 
 
CITY SKY/WX TMP DP RH WIND PRES REMARKS
 
ANDERSON PTCLDY 59 52 77 SE6 30.14F  
LIBERTY MOSUNNY 58 52 79 CALM 30.14S  
SPARTANBURG CLOUDY 54 48 82 SE3 30.16F  
CLEMSON MOCLDY 61 52 72 CALM 30.14F  
GREENVILLE PTCLDY 59 51 75 S6 30.16F  
GREENWOOD CLEAR 55 50 83 CALM 30.16F  
GREER CLEAR 54 50 86 SE8 30.13F  
ROCK HILL CLEAR 55 52 89 S5 30.18F  
CHESTER SUNNY 55 54 94 S5 30.18F  
LAURENS MOSUNNY 57 52 82 SE6 30.16F  
 
   
..CENTRAL SOUTH CAROLINA
 
 
 
CITY SKY/WX TMP DP RH WIND PRES REMARKS
 
COLUMBIA APT MOCLDY 56 51 84 CALM 30.17F  
COLUMBIA OWENS PTCLDY 57 54 89 CALM 30.19F  
MCENTIRE ANGB PTCLDY 54 54 100 CALM 30.18F  
ORANGEBURG CLOUDY 55 53 93 CALM 30.18F  
SUMTER SHAW MOCLDY 56 53 88 CALM 30.16F  
NEWBERRY MOSUNNY 55 52 88 SE3 30.19F  
AIKEN FAIR 55 52 88 SE6 30.20F  
BARNWELL FAIR 55 54 94 CALM 30.18S  
MANNING PTSUNNY 54 52 94 CALM 30.18F  
CAMDEN CLOUDY 55 54 94 CALM 30.19F  
LANCASTER PTSUNNY 57 57 100 CALM 30.19F  
WINNSBORO MOSUNNY 55 54 94 SE6 30.18F  
 
   
..EASTERN AND COASTAL SOUTH CAROLINA
 
 
 
CITY SKY/WX TMP DP RH WIND PRES REMARKS
 
MYRTLE BEACH CLOUDY 64 57 78 S6 30.20F  
N MYRTLE BCH MOCLDY 61 57 87 S3 30.19F  
CONWAY PTSUNNY 50 46 87 CALM 30.19F  
MARION FAIR 55 52 88 SE3 30.19F  
HARTSVILLE PTSUNNY 55 52 88 CALM 30.18F  
FLORENCE PTCLDY 56 54 93 CALM 30.19F  
DARLINGTON CLOUDY 56 54 93 CALM 30.19F  
CHARLESTON APT MOCLDY 61 56 83 SE5 30.17F  
MOUNT PLEASANT FAIR 63 57 82 SE3 30.17F  
WALTERBORO FOG 52 52 100 CALM 30.19S VSB 3/4  
BEAUFORT PTCLDY 57 57 100 CALM 30.17F  
 
   
..EASTERN GEORGIA
 
 
 
CITY SKY/WX TMP DP RH WIND PRES REMARKS
 
AUGUSTA BUSH F PTCLDY 55 53 93 SE6 30.15F  
AUGUSTA DANIEL PTCLDY 60 53 77 SE7 30.15F  
THOMSON MOCLDY 60 54 80 SW5 30.19F  
WASHINGTON FAIR 61 55 82 S6 30.14S  
CLAXTON PTSUNNY N/A N/A N/A CALM 30.17F  
SYLVANIA CLOUDY N/A N/A N/A CALM 30.18F  
STATESBORO MOCLDY 57 57 100 CALM 30.16F  
SAVANNAH PTCLDY 57 54 89 CALM 30.18S  
 
   
..SOUTHERN NORTH CAROLINA
 
 
 
CITY SKY/WX TMP DP RH WIND PRES REMARKS
 
CHARLOTTE PTCLDY 55 51 86 S6 30.18F  
MONROE CLOUDY 57 52 83 S3 30.18F  
WADESBORO MOSUNNY 55 51 85 CALM 30.19S  
ROCKINGHAM MOSUNNY 56 55 93 CALM 30.19S  
RUTHERFORDTON PTCLDY 56 52 84 E5 30.17F  
ASHEVILLE CLOUDY 57 48 72 S9 30.15F  
 

 
 
 
CLICK HERE TO GO TO PREVIOUS BULLETINS.

The Nexlab SC Page
The Nexlab GA Page Main Text Page